Location: Newark
(46.9000°N, 28.3500°E)
Time: 21:01:54
(UTC+00:00)

Altair - All Passes

Search period start: 24 August 2019 00:00
Search period end: 03 September 2019 00:00
Orbit: 1501 x 1683 km, 47.2° (Epoch: 24 August)

Date Brightness Start Highest point End Pass type
(mag) Time Alt. Az. Time Alt. Az. Time Alt. Az.
24 Aug - 00:27:05 10° SW 00:36:27 50° SE 00:45:30 10° ENE visible
24 Aug - 02:30:59 10° WSW 02:40:47 86° SSE 02:50:13 10° E visible
24 Aug - 04:36:04 10° W 04:45:42 87° S 04:54:59 10° ESE daylight
24 Aug - 06:41:00 10° WNW 06:49:57 51° SW 06:58:40 10° SE daylight
24 Aug - 08:47:40 10° W 08:52:51 16° SW 08:57:59 10° SSW daylight
24 Aug - 22:03:28 10° SSE 22:08:23 15° SE 22:13:15 10° E visible
25 Aug - 00:02:03 10° SSW 00:11:21 47° SE 00:20:19 10° ENE visible
25 Aug - 02:05:46 10° WSW 02:15:36 85° SSE 02:25:03 10° E visible
25 Aug - 04:10:51 10° W 04:20:31 89° S 04:29:50 10° ESE daylight
25 Aug - 06:15:48 10° WNW 06:24:51 54° SSW 06:33:41 10° SE daylight
25 Aug - 08:22:07 10° W 08:27:51 18° SW 08:33:33 10° SSW daylight
25 Aug - 21:39:17 10° SSE 21:43:23 13° ESE 21:47:25 10° E visible
25 Aug - 23:37:02 10° SSW 23:46:14 44° SE 23:55:08 10° ENE visible
26 Aug - 01:40:33 10° WSW 01:50:25 83° SSE 01:59:54 10° ENE visible
26 Aug - 03:45:37 10° W 03:55:20 90° WSW 04:04:41 10° E daylight
26 Aug - 05:50:35 10° WNW 05:59:46 57° SSW 06:08:40 10° SE daylight
26 Aug - 07:56:37 10° W 08:02:52 20° SW 08:09:02 10° S daylight
26 Aug - 21:15:27 10° SE 21:18:23 12° ESE 21:21:17 10° ESE visible
26 Aug - 23:12:03 10° SSW 23:21:08 42° SE 23:29:56 10° ENE visible
27 Aug - 01:15:21 10° WSW 01:25:14 81° SSE 01:34:45 10° ENE visible
27 Aug - 03:20:23 10° W 03:30:09 89° N 03:39:31 10° E daylight
27 Aug - 05:25:22 10° WNW 05:34:39 60° SSW 05:43:39 10° SE daylight
27 Aug - 07:31:11 10° W 07:37:52 23° SW 07:44:26 10° S daylight
27 Aug - 22:47:06 10° SSW 22:56:02 39° SE 23:04:43 10° ENE visible
28 Aug - 00:50:09 10° WSW 01:00:04 78° SSE 01:09:35 10° ENE visible
28 Aug - 02:55:09 10° W 03:04:57 88° N 03:14:22 10° E daylight
28 Aug - 05:00:09 10° WNW 05:09:32 63° SSW 05:18:36 10° SE daylight
28 Aug - 07:05:47 10° W 07:12:50 25° SW 07:19:48 10° S daylight
28 Aug - 22:22:09 10° SSW 22:30:57 36° SE 22:39:29 10° ENE visible
29 Aug - 00:24:58 10° WSW 00:34:53 76° SSE 00:44:26 10° ENE visible
29 Aug - 02:29:55 10° W 02:39:45 88° N 02:49:12 10° E visible
29 Aug - 04:34:56 10° WNW 04:44:25 67° SSW 04:53:33 10° SE daylight
29 Aug - 06:40:26 10° W 06:47:49 27° SW 06:55:05 10° S daylight
29 Aug - 21:57:15 10° SSW 22:05:52 34° SE 22:14:15 10° ENE visible
29 Aug - 23:59:47 10° WSW 00:09:43 73° SSE 00:19:16 10° ENE visible
30 Aug - 02:04:40 10° W 02:14:33 88° N 02:24:02 10° E visible
30 Aug - 04:09:44 10° WNW 04:19:17 70° SSW 04:28:28 10° SE daylight
30 Aug - 06:15:06 10° WNW 06:22:49 29° SW 06:30:20 10° S daylight
30 Aug - 21:32:22 10° SSW 21:40:47 32° SE 21:48:59 10° ENE visible
30 Aug - 23:34:37 10° WSW 23:44:32 71° SSE 23:54:06 10° ENE visible
31 Aug - 01:39:26 10° W 01:49:22 88° N 01:58:52 10° E visible
31 Aug - 03:44:31 10° WNW 03:54:08 72° SSW 04:03:23 10° ESE daylight
31 Aug - 05:49:47 10° WNW 05:57:46 32° SW 06:05:33 10° SSE daylight
31 Aug - 21:07:32 10° S 21:15:42 29° SE 21:23:41 10° ENE visible
31 Aug - 23:09:28 10° SW 23:19:23 68° SSE 23:28:56 10° ENE visible
01 Sep - 01:14:11 10° W 01:24:09 88° N 01:33:43 10° E visible
01 Sep - 03:19:18 10° WNW 03:28:59 75° SSW 03:38:17 10° ESE daylight
01 Sep - 05:24:30 10° WNW 05:32:44 35° SW 05:40:45 10° SSE daylight
01 Sep - 20:42:45 10° S 20:50:39 27° SE 20:58:23 10° E visible
01 Sep - 22:44:20 10° SW 22:54:13 65° SSE 23:03:46 10° ENE visible
02 Sep - 00:48:57 10° W 00:58:56 88° N 01:08:32 10° E visible
02 Sep - 02:54:04 10° WNW 03:03:50 78° SSW 03:13:11 10° ESE visible
02 Sep - 04:59:13 10° WNW 05:07:41 37° SW 05:15:54 10° SSE daylight
02 Sep - 20:18:01 10° S 20:25:35 25° SE 20:33:02 10° E visible
02 Sep - 22:19:12 10° SW 22:29:03 62° SSE 22:38:36 10° ENE visible
